Regional Weather Roundup
Issued by NWS Mt. Holly, NJ

Home | Current Version | Previous Version | Text Only | Print | Product List | Glossary On
Versions: 1 2 3 4 5 6 7 8 9 10 11 12 13 14 15 16 17 18 19 20 21 22 23 24 25 26 27 28 29 30 31 32 33 34 35 36 37 38 39 40 41 42 43 44 45 46 47 48 49
000
ASUS41 KPHI 281712
RWRPHI

REGIONAL WEATHER ROUNDUP
NATIONAL WEATHER SERVICE MOUNT HOLLY NJ
1200 PM EST SAT FEB 28 2015

NOTE:  "FAIR" INDICATES FEW OR NO CLOUDS BELOW 12,000 FEET WITH NO
SIGNIFICANT WEATHER AND/OR OBSTRUCTIONS TO VISIBILITY.

 * = STATION DOES NOT REPORT PRECIPITATION (E.G. RAIN, SNOW, ETC.)
        OR FOG.

NJZ015>026-281800-
SOUTHERN NEW JERSEY

CITY           SKY/WX    TMP DP  RH WIND       PRES   REMARKS
POMONA         PTSUNNY   26   0  32 NW6       30.83S WCI  19
RIO GRANDE*    PTSUNNY   25   1  36 W9        30.84F WCI  15
MILLVILLE      PTSUNNY   25   1  35 NW6       30.83F WCI  18
WRIGHTSTOWN    SUNNY     24   1  36 NW5       30.80F WCI  18
MOUNT HOLLY    MOSUNNY   23  -1  35 CALM      30.83F
TRENTON        SUNNY     23  -1  35 NW6       30.81F WCI  16

$$
NJZ001>014-281800-
NORTHERN NEW JERSEY

CITY           SKY/WX    TMP DP  RH WIND       PRES   REMARKS
SUSSEX         SUNNY     20   1  43 CALM      30.78S
ANDOVER*         N/A     22   1  40 VRB5      30.77S WCI  16
MORRISTOWN     SUNNY     21   0  39 CALM      30.82F
NEWARK         MOSUNNY   24   2  38 W5        30.83S WCI  18
TETERBORO      SUNNY     23  -1  35 W6        30.82S WCI  16
CALDWELL       SUNNY     21   0  39 E5        30.82S WCI  15
SOMERVILLE     SUNNY     24  -1  33 N5        30.81S WCI  18
ALLAIRE*       SUNNY     25   0  33 NW9       30.81S WCI  15
TOMS RIVER*    MOSUNNY   25   0  33 NW7       30.82F WCI  17

$$
PAZ043-044-047-054-055-060>062-066>071-281800-
EASTERN PENNSYLVANIA

CITY           SKY/WX    TMP DP  RH WIND       PRES   REMARKS
PHILADELPHIA   MOSUNNY   25  -2  31 NW5       30.85F WCI  19
NORTH PHILA    MOSUNNY   26  -2  29 CALM      30.85F
BLUE BELL      SUNNY     25   1  36 W5        30.81F WCI  19
DOYLESTOWN     SUNNY     21   0  39 W5        30.80F WCI  15
QUAKERTOWN*    SUNNY     19  -2  38 CALM      30.81F
POTTSTOWN      SUNNY     23  -3  32 N5        30.83F WCI  17
LANCASTER      SUNNY     20  -3  36 W5        30.82F WCI  13
COATESVILLE    SUNNY     23   0  36 CALM      30.80F
READING        SUNNY     22  -5  30 NW5       30.82F WCI  16
ALLENTOWN      FLURRIES  20  -3  36 SW3       30.81F
MOUNT POCONO   SUNNY     16  -2  45 NW7       30.65R WCI   6
HAZLETON       SUNNY     18  -6  35 CALM      30.72F
WILKES BARRE   SUNNY     18  -1  43 CALM      30.76S

$$
DEZALL-MDZ008-012-015-019-020-281800-
DELAWARE AND EASTERN MARYLAND

CITY           SKY/WX    TMP DP  RH WIND       PRES   REMARKS
WILMINGTON     MOSUNNY   25  -3  29 VRB5      30.85F WCI  19
DOVER          PTSUNNY   24   7  46 N8        30.85F WCI  16
GEORGETOWN     PTSUNNY   40   5  23 NE5       30.84F
EASTON         MOSUNNY   28   7  40 NW3       30.88
PATUXENT       CLOUDY    24   8  50 NE13      30.85F WCI  12
OCEAN CITY     MOSUNNY   26  10  50 NE9       30.84F WCI  17
WALLOPS ISLAND MOSUNNY   26  13  57 E9        30.84F WCI  17
CAMBRIDGE      PTSUNNY   28   9  43 NW6       30.85F WCI  22
SALISBURY      PTSUNNY   29   6  38 CALM      30.83F

$$
PAZ001-021-NYZ056-072-MDZ011-DCZ001-281800-
OTHER NEARBY LOCATIONS

CITY           SKY/WX    TMP DP  RH WIND       PRES   REMARKS
HARRISBURG     MOSUNNY   22   0  38 CALM      30.83F
STATE COLLEGE  SUNNY     18  -4  38 CALM      30.75F
WILLIAMSPORT   SUNNY     32  -2  23 CALM      30.82F
BINGHAMTON     SUNNY     14   0  53 CALM      30.68S
NEW YORK CITY  SUNNY     23  -2  33 NW5       30.83S WCI  17
BALTIMORE      PTSUNNY   25  -2  31 VRB3      30.84F
WASHINGTON DC  PTSUNNY   28   3  34 E5        30.86F WCI  23

$$



USA.gov is the U.S. government's official web portal to all federal, state and local government web resources and services.